Iowa City, IA

5:51 AM CST on December 12, 2019 (GMT -0600)
Iowa City Municipal

Weather History for KIOW - October, 2019

Change the Weather History Date:

Wednesday, October 23, 2019

  Actual Average Record
Temperature  
Mean Temperature 49 °F 50 °F  
Max Temperature 61 °F 60 °F 85 °F (1963)
Min Temperature 36 °F 39 °F 23 °F (1964)
Degree Days  
Heating Degree Days 16 16  
Month to date heating degree days 279 275  
Since 1 July heating degree days 286 387  
Cooling Degree Days 0 0  
Month to date cooling degree days 18 10  
Year to date cooling degree days 1175 912  
Moisture  
Dew Point 38 °F    
Average Humidity 70    
Maximum Humidity 89    
Minimum Humidity 51    
Precipitation  
Precipitation 0.04 in 0.10 in 1.27 in (1988)
Month to date precipitation 1.91 2.11  
Year to date precipitation 38.88 31.65  
Sea Level Pressure  
Sea Level Pressure 29.93 in    
Wind  
Wind Speed 6 mph (SW)    
Max Wind Speed 18 mph    
Max Gust Speed 27 mph    
Visibility 10 miles    
Events Rain    
T = Trace of Precipitation, MM = Missing Value Source: NWS Daily Summary

Daily Weather History Graph

Daily Weather History Graph

Search for Another Location

Airport or City:

Astronomy

Oct. 23, 2019 Rise Set
Actual Time 7:27 AM CDT 6:13 PM CDT
Civil Twilight 6:58 AM CDT 6:41 PM CDT
Nautical Twilight 6:26 AM CDT 7:13 PM CDT
Astronomical Twilight 5:54 AM CDT 7:45 PM CDT
Moon 1:40 AM CDT (10/23) 4:09 PM CDT (10/23)
Length of Visible Light 11h 42m
Length of Day
10h 45m
Waning Crescent, 26% of the Moon is Illuminated
Oct 23
Waning Crescent
Oct 27
New
Nov 4
First Quarter
Nov 12
Full
Nov 19
Last Quarter

Hourly Weather History & Observations

Time (CDT) Temp. Windchill Dew Point Humidity Pressure Visibility Wind Dir Wind Speed Gust Speed Precip Events Conditions
12:52 AM 39.9 °F 36.7 °F 30.9 °F 70% 29.88 in 10.0 mi SW 4.6 mph - N/A   Clear
1:52 AM 41.0 °F 37.1 °F 30.9 °F 67% 29.88 in 10.0 mi WSW 5.8 mph - N/A   Clear
2:52 AM 39.9 °F 37.8 °F 30.9 °F 70% 29.88 in 10.0 mi WSW 3.5 mph - N/A   Clear
3:52 AM 39.9 °F - 30.9 °F 70% 29.88 in 10.0 mi Calm Calm - N/A   Clear
4:52 AM 39.0 °F 36.8 °F 30.9 °F 73% 29.90 in 10.0 mi SW 3.5 mph - N/A   Clear
5:52 AM 36.0 °F - 30.9 °F 82% 29.90 in 10.0 mi Calm Calm - N/A   Clear
7:52 AM 39.9 °F - 34.0 °F 79% 29.92 in 10.0 mi Calm Calm - N/A   Overcast
8:52 AM 42.1 °F - 37.0 °F 82% 29.94 in 10.0 mi Calm Calm - 0.00 in Rain Light Rain
9:52 AM 43.0 °F 40.3 °F 39.0 °F 86% 29.92 in 10.0 mi SE 4.6 mph - 0.04 in Rain Light Rain
10:52 AM 46.9 °F - 41.0 °F 80% 29.94 in 10.0 mi Calm Calm - 0.00 in   Mostly Cloudy
11:52 AM 51.1 °F - 42.1 °F 71% 29.92 in 10.0 mi SSE 8.1 mph - N/A   Partly Cloudy
12:52 PM 57.0 °F - 43.0 °F 59% 29.88 in 10.0 mi SE 4.6 mph - N/A   Clear
1:52 PM 57.9 °F - 41.0 °F 53% 29.86 in 10.0 mi SSE 11.5 mph - N/A   Clear
2:52 PM 60.1 °F - 42.1 °F 51% 29.82 in 10.0 mi SE 11.5 mph 20.7 mph 0.00 in   Mostly Cloudy
3:52 PM 59.0 °F - 39.9 °F 49% 29.88 in 10.0 mi SSW 6.9 mph - 0.00 in Rain Light Rain
4:52 PM 59.0 °F - 41.0 °F 51% 29.88 in 10.0 mi SSW 4.6 mph - 0.00 in   Mostly Cloudy
5:52 PM 55.0 °F - 43.0 °F 64% 29.91 in 10.0 mi North 9.2 mph - N/A   Overcast
6:52 PM 51.1 °F - 43.0 °F 74% 29.94 in 10.0 mi North 16.1 mph - 0.00 in   Overcast
7:52 PM 48.0 °F - 41.0 °F 77% 29.99 in 10.0 mi North 13.8 mph 23.0 mph N/A   Overcast
8:52 PM 46.0 °F 40.6 °F 39.0 °F 76% 30.03 in 10.0 mi North 11.5 mph 25.3 mph N/A   Overcast
9:52 PM 46.0 °F 40.6 °F 37.0 °F 71% 30.07 in 10.0 mi NNW 11.5 mph - N/A   Overcast
10:52 PM 44.1 °F 40.1 °F 37.0 °F 76% 30.09 in 10.0 mi NNW 6.9 mph - N/A   Scattered Clouds
11:52 PM 44.1 °F 39.0 °F 37.9 °F 79% 30.15 in 10.0 mi NW 9.2 mph - N/A   Overcast